(257360) = 2009 MA1 = 2010 PR65

Discovered at La Sagra on 2009-06-17 by OAM.

Orbit

Orbit type: Main Belt

Note: WebGL enabled browser required.

epoch2023-09-13.0
epoch JD2460200.5
perihelion date2021-02-22.86813
perihelion JD2459268.36813
argument of perihelion (°)59.27216
ascending node (°)225.79171
inclination (°)16.38267
eccentricity0.0882370
perihelion distance (AU)2.8998097
Tisserand w.r.t. Jupiter3.1
ΔV w.r.t. Earth (km/sec)11.7
semimajor axis (AU)3.1804426
mean anomaly (°)161.97570
mean daily motion (°/day)0.17376910
aphelion distance (AU)3.461
period (years)5.67
P-vector [x]0.23487855
P-vector [y]-0.96006946
P-vector [z]-0.15198258
Q-vector [x]0.95076627
Q-vector [y]0.19439447
Q-vector [z]0.24135926
absolute magnitude15.16
phase slope0.15
uncertainty0
referenceMPEC 2023-Y63
observations used554
oppositions15
arc length (days)7532
first opposition used2003
last opposition used2023
residual rms (arc-secs)0.71
perturbers coarse indicatorM-v
perturbers precise indicator003Ek
first observation date used2003-05-05.0
last observation date used2023-12-18.0
computer nameMPCLINUX
JD of orbit computation2456819.438710
perihelion JD uncertainty (days)3.5257E-04
argument of perihelion uncertainty (°)6.1014E-05
ascending node uncertainty (°)1.8880E-05
inclination uncertainty (°)9.1264E-06
eccentricity uncertainty 5.5633E-08
perihelion distance uncertainty (AU)1.9881E-07
Minimum Orbit Intersection Distances (in AU)
for orbit epoch: 2460200.5, reference: E2023-Y63
Mercury2.46365
Venus2.20199
Earth1.92143
Mars1.44763
Jupiter1.66447
Saturn5.67916
Uranus15.2712
Neptune26.5292

Observations

565 total observations over interval: 2003 05 05.33080 – 2023 12 18.273705
These data are available for download (format description).

Date (UT) J2000 RA J2000 Dec Magn Location Ref
2003 05 05.33080 15 38 22.14 -16 45 30.9 19.2   704 – Lincoln Laboratory ETS, New Mexico MPS 344997
2003 05 05.34309 15 38 21.62 -16 45 25.7 19.4   704 – Lincoln Laboratory ETS, New Mexico MPS 344997
2003 05 05.36825 15 38 20.49 -16 45 14.4 19.0   704 – Lincoln Laboratory ETS, New Mexico MPS 344997
2003 05 05.38073 15 38 19.90 -16 45 08.1 19.7   704 – Lincoln Laboratory ETS, New Mexico MPS 344997
2003 05 22.29584 15 25 46.87 -14 36 26.2 19.8 V 691 – Steward Observatory, Kitt Peak-Spacewatch MPS 344997
2003 05 22.32684 15 25 45.47 -14 36 11.9 19.9 V 691 – Steward Observatory, Kitt Peak-Spacewatch MPS 344997
2003 05 22.35522 15 25 44.18 -14 35 59.3 20.0 V 691 – Steward Observatory, Kitt Peak-Spacewatch MPS 344997
2003 05 30.28084 15 20 08.84 -13 38 50.8 19.0   704 – Lincoln Laboratory ETS, New Mexico MPS 344997
2003 05 30.29130 15 20 08.37 -13 38 46.6 19.3   704 – Lincoln Laboratory ETS, New Mexico MPS 344997
2003 05 30.30185 15 20 07.91 -13 38 41.7 19.0   704 – Lincoln Laboratory ETS, New Mexico MPS 344997
2004 07 12.39007 21 47 40.85 +10 30 33.6 19.4   644 – Palomar Mountain/NEAT MPS 344997
2004 07 12.40111 21 47 40.56 +10 30 35.7 19.7   644 – Palomar Mountain/NEAT MPS 344997
2004 07 12.41193 21 47 40.32 +10 30 37.9 19.4   644 – Palomar Mountain/NEAT MPS 344997
2005 10 26.22499 03 05 50.99 +18 18 15.9 20.1 V 691 – Steward Observatory, Kitt Peak-Spacewatch MPS 344997
2005 10 26.24234 03 05 50.23 +18 18 08.9 20.1 V 691 – Steward Observatory, Kitt Peak-Spacewatch MPS 344997
2005 10 26.25969 03 05 49.47 +18 18 01.8 20.2 V 691 – Steward Observatory, Kitt Peak-Spacewatch MPS 344997
2005 11 06.32345 02 57 34.74 +16 59 09.3 19.3 V G96 – Mt. Lemmon Survey MPS 344997
2005 11 06.33333 02 57 34.27 +16 59 04.9 19.3 V G96 – Mt. Lemmon Survey MPS 344997
2005 11 06.35318 02 57 33.33 +16 58 56.2 18.3 V G96 – Mt. Lemmon Survey MPS 344997
2005 12 04.22061 02 38 50.96 +13 46 50.2 19.8 V G96 – Mt. Lemmon Survey MPS 344997
2005 12 04.22830 02 38 50.74 +13 46 47.4 19.4 V G96 – Mt. Lemmon Survey MPS 344997
2005 12 04.23598 02 38 50.49 +13 46 44.9 20.0 V G96 – Mt. Lemmon Survey MPS 344997
2005 12 04.24368 02 38 50.24 +13 46 41.3 19.3 V G96 – Mt. Lemmon Survey MPS 344997
2009 06 17.99637 17 14 34.30 -08 35 43.4 19.3 V J75 – OAM Observatory, La Sagra MPS 289042
2009 06 18.00975 17 14 33.63 -08 35 39.2 19.2 V J75 – OAM Observatory, La Sagra MPS 289042
2009 06 18.02306 17 14 33.01 -08 35 35.4 19.1 V J75 – OAM Observatory, La Sagra MPS 289042
2009 06 22.28061 17 11 19.59 -08 18 25.9   704 – Lincoln Laboratory ETS, New Mexico MPS 407081
2009 06 22.29133 17 11 19.10 -08 18 24.0   704 – Lincoln Laboratory ETS, New Mexico MPS 407081
2009 06 22.30248 17 11 18.53 -08 18 22.7   704 – Lincoln Laboratory ETS, New Mexico MPS 407081
2009 06 23.03799 17 10 45.93 -08 15 40.0 19.7 V J75 – OAM Observatory, La Sagra MPS 289042
2009 06 23.05254 17 10 45.32 -08 15 36.6 20.0 V J75 – OAM Observatory, La Sagra MPS 289042
2009 06 23.97821 17 10 04.95 -08 12 18.1 19.6 V J75 – OAM Observatory, La Sagra MPS 289042
2009 06 23.98905 17 10 04.45 -08 12 15.5 19.5 V J75 – OAM Observatory, La Sagra MPS 289042
2009 06 23.99739 17 10 04.12 -08 12 14.1 19.6 V J75 – OAM Observatory, La Sagra MPS 289042
2010 06 17.844677 23 22 04.723 +13 39 37.08   C51 – WISE MPS 903821
2010 06 17.844804 23 22 04.714 +13 39 37.55   C51 – WISE MPS 903821
2010 06 17.976981 23 22 09.643 +13 40 38.57   C51 – WISE MPS 903821
2010 06 18.109286 23 22 14.510 +13 41 39.77   C51 – WISE MPS 903821
2010 06 18.241589 23 22 19.402 +13 42 41.15   C51 – WISE MPS 903821
2010 06 18.373894 23 22 24.271 +13 43 42.06   C51 – WISE MPS 903821
2010 06 18.440109 23 22 26.724 +13 44 12.91   C51 – WISE MPS 903821
2010 06 18.506197 23 22 29.131 +13 44 42.72   C51 – WISE MPS 903822
2010 06 18.572412 23 22 31.574 +13 45 13.50   C51 – WISE MPS 903822
2010 06 18.638500 23 22 33.972 +13 45 43.96   C51 – WISE MPS 903822
2010 06 18.704716 23 22 36.377 +13 46 14.41   C51 – WISE MPS 903822
2010 06 18.836892 23 22 41.201 +13 47 14.68   C51 – WISE MPS 903822
2010 06 18.837020 23 22 41.222 +13 47 15.04   C51 – WISE MPS 903822
2010 06 18.969197 23 22 45.998 +13 48 15.70   C51 – WISE MPS 903822
2010 06 19.101500 23 22 50.777 +13 49 16.18   C51 – WISE MPS 903822
2010 06 19.233804 23 22 55.531 +13 50 16.84   C51 – WISE MPS 903822
2010 08 13.97737 23 28 32.21 +17 44 15.7 19.2 V A50 – Andrushivka Astronomical Observatory MPS 345055
2010 08 13.99392 23 28 31.77 +17 44 15.1 19.4 V A50 – Andrushivka Astronomical Observatory MPS 345055
2010 08 14.01047 23 28 31.33 +17 44 14.6 19.3 V A50 – Andrushivka Astronomical Observatory MPS 345055
2010 08 15.00379 23 28 05.23 +17 43 28.0 19.2 V A50 – Andrushivka Astronomical Observatory MPS 345055
2010 08 15.00737 23 28 05.17 +17 43 28.0 19.1 V A50 – Andrushivka Astronomical Observatory MPS 345055
2010 08 15.01095 23 28 05.03 +17 43 27.9 19.2 V A50 – Andrushivka Astronomical Observatory MPS 345055
2010 08 15.01453 23 28 04.96 +17 43 27.6 19.1 V A50 – Andrushivka Astronomical Observatory MPS 345055
2010 08 15.01810 23 28 04.82 +17 43 28.0 19.4 V A50 – Andrushivka Astronomical Observatory MPS 345055
2010 09 12.90868 23 10 30.36 +15 45 36.3 19.7 V J75 – OAM Observatory, La Sagra MPS 348110
2010 09 12.92156 23 10 29.85 +15 45 29.9 19.2 V J75 – OAM Observatory, La Sagra MPS 348110
2010 09 12.93447 23 10 29.32 +15 45 24.8 19.5 V J75 – OAM Observatory, La Sagra MPS 348110
2010 10 06.10758 22 56 51.11 +12 31 41.5 20.4 R H15 – ISON-NM Observatory, Mayhill MPS 349569
2010 10 06.13442 22 56 50.36 +12 31 27.0 20.1 R H15 – ISON-NM Observatory, Mayhill MPS 349569
2010 10 06.16131 22 56 49.67 +12 31 12.2 19.2 R H15 – ISON-NM Observatory, Mayhill MPS 349569
2010 10 06.19001 22 56 48.84 +12 30 56.8 19.5 R H15 – ISON-NM Observatory, Mayhill MPS 349569
2010 10 07.14125 22 56 24.36 +12 22 19.6 19.7 V 703 – Catalina Sky Survey MPS 349569
2010 10 07.14807 22 56 24.14 +12 22 15.3 19.6 V 703 – Catalina Sky Survey MPS 349569
2010 10 07.15612 22 56 24.00 +12 22 11.9 19.5 V 703 – Catalina Sky Survey MPS 349569
2010 10 07.16296 22 56 23.82 +12 22 08.6 19.2 V 703 – Catalina Sky Survey MPS 349569
2010 10 14.19214 22 53 53.26 +11 18 56.3 19.9 V G96 – Mt. Lemmon Survey MPS 351414
2010 10 14.19909 22 53 53.08 +11 18 52.7 19.8 V G96 – Mt. Lemmon Survey MPS 351414
2010 10 14.20609 22 53 53.01 +11 18 48.8 19.7 V G96 – Mt. Lemmon Survey MPS 351414
2010 10 14.21299 22 53 52.87 +11 18 45.5 19.8 V G96 – Mt. Lemmon Survey MPS 351414
2011 10 26.42667 04 45 13.884 +16 29 38.45 21.0 w F51 – Pan-STARRS 1, Haleakala MPS 398013
2011 10 26.44117 04 45 13.489 +16 29 33.79 20.8 w F51 – Pan-STARRS 1, Haleakala MPS 398013
2011 10 26.45575 04 45 13.112 +16 29 29.04 20.8 w F51 – Pan-STARRS 1, Haleakala MPS 398013
2011 10 26.47031 04 45 12.719 +16 29 24.38 20.6 w F51 – Pan-STARRS 1, Haleakala MPS 398013
2011 11 22.68682 04 27 41.12 +13 54 08.8 19.8 R D29 – Purple Mountain Observatory, XuYi Station MPS 402223
2011 11 22.70282 04 27 40.27 +13 54 03.1 20.4 R D29 – Purple Mountain Observatory, XuYi Station MPS 402223
2011 11 22.71882 04 27 39.47 +13 53 57.6 19.9 R D29 – Purple Mountain Observatory, XuYi Station MPS 402223
2011 11 28.29384 04 23 11.79 +13 23 03.3 19.5 V G96 – Mt. Lemmon Survey MPS 403730
2011 11 28.30248 04 23 11.36 +13 23 00.7 19.4 V G96 – Mt. Lemmon Survey MPS 403730
2011 11 28.31120 04 23 10.93 +13 22 58.0 19.5 V G96 – Mt. Lemmon Survey MPS 403730
2011 11 28.31991 04 23 10.50 +13 22 54.9 19.5 V G96 – Mt. Lemmon Survey MPS 403730
2013 02 12.39856 08 18 14.288 -03 28 20.23 20.4 g F51 – Pan-STARRS 1, Haleakala MPS 456025
2013 02 12.41142 08 18 13.758 -03 28 16.83 20.4 g F51 – Pan-STARRS 1, Haleakala MPS 456025
2014 03 10.44668 13 24 43.94 -21 03 19.4 20.4 R 926 – Tenagra II Observatory, Nogales MPS 506191
2014 03 10.46492 13 24 43.53 -21 03 15.5 20.0 R 926 – Tenagra II Observatory, Nogales MPS 506191
2014 03 10.48320 13 24 43.03 -21 03 12.7 20.2 R 926 – Tenagra II Observatory, Nogales MPS 506191
2014 03 25.53407 13 16 58.688 -19 55 03.44 19.6 r F51 – Pan-STARRS 1, Haleakala MPS 508289
2014 03 25.54577 13 16 58.242 -19 54 59.33 19.7 r F51 – Pan-STARRS 1, Haleakala MPS 508289
2014 04 10.39362 13 06 16.416 -18 01 49.23 19.3 i F51 – Pan-STARRS 1, Haleakala MPS 510904
